Wind_Speed
7 9 10 12 15 17 19 20 20 20 19 19 19 19 19 19 18 18 18 18 18 18 18 18 18 18 18 18 18 18 18 18 19 19 20 20 20 20 21 21 22 22 22
7 8 8 10 13 16 17 19 20 20 20 20 19 19 19 19 19 20 20 20 20 20 19 19 20 20 21 21 21 21 21 21 21 22 23 23 23 23 23 24 25 25 25
6 7 8 9 11 14 16 17 18 19 19 20 20 20 20 19 19 20 21 21 21 21 21 21 22 22 23 23 24 24 24 24 24 25 25 26 26 26 26 26 27 28 28
5 7 9 10 11 13 14 16 17 19 19 19 20 21 21 21 21 21 22 22 23 23 23 23 23 24 24 25 25 26 26 27 27 27 28 28 29 29 29 30 30 30 31
7 8 9 11 12 13 14 15 17 18 19 19 20 20 21 22 22 23 22 23 24 24 24 24 25 25 25 26 26 27 28 29 30 30 30 31 31 32 32 33 33 34 34
10 10 11 11 12 13 14 16 16 16 17 19 20 21 21 21 22 23 24 25 25 25 25 25 25 26 27 28 28 29 30 31 32 32 33 33 34 36 37 37 37 37 37
13 13 13 13 13 13 15 16 18 17 17 18 19 20 21 22 23 24 25 25 25 25 26 26 26 27 29 30 31 32 33 33 34 35 35 36 37 38 39 40 40 40 39
14 14 14 14 14 15 16 16 18 19 19 20 21 22 23 23 24 24 24 24 25 26 27 28 29 30 31 32 33 34 35 36 37 38 39 39 40 41 41 42 42 42 42
15 14 14 14 14 15 16 18 19 19 20 21 22 22 23 24 23 23 24 25 26 28 28 29 30 31 33 34 35 35 37 38 40 41 42 42 43 44 44 45 45 46 46
17 16 15 15 15 16 17 18 19 19 20 21 21 23 23 24 24 24 25 26 27 29 30 31 32 33 35 36 37 38 39 40 41 42 43 44 45 46 47 48 49 50 50
18 17 17 17 17 18 18 19 19 20 20 20 21 22 23 23 24 25 26 27 29 31 32 33 35 36 37 38 39 40 41 42 43 44 46 47 48 49 50 51 52 53 54
19 19 19 19 19 19 20 20 21 21 22 22 22 23 23 24 26 27 28 30 32 34 35 36 37 38 39 40 41 42 43 44 45 46 48 49 50 51 52 53 54 55 56
21 21 20 21 21 21 21 21 22 22 23 24 24 26 28 29 30 31 32 33 34 35 36 37 39 40 42 43 44 45 46 47 48 49 51 52 53 54 54 55 56 57 58
22 22 22 22 22 22 23 23 24 24 25 26 27 28 30 31 32 32 34 35 36 38 39 40 41 42 43 44 46 47 48 49 50 51 52 53 55 56 57 57 58 58 58
22 22 22 22 23 24 24 24 24 25 25 26 27 28 29 31 32 34 35 37 38 40 41 42 43 45 46 47 48 49 50 50 51 52 53 54 55 56 57 57 57 57 56
22 22 22 22 23 23 24 24 25 26 26 27 28 29 31 32 34 37 38 39 40 41 41 43 45 46 47 48 49 50 51 52 52 53 54 55 56 56 57 56 55 54 54
20 21 21 22 23 23 25 26 27 27 29 30 31 32 33 35 37 38 39 40 41 42 44 45 46 47 48 49 50 50 51 52 53 55 56 56 56 56 55 53 52 51 51
20 20 21 22 24 25 26 26 27 28 30 31 33 34 35 36 38 39 40 41 43 44 45 46 47 47 48 49 50 51 52 52 53 54 54 53 52 51 50 49 48 47 46
20 21 23 24 25 25 27 28 29 30 32 33 34 35 36 37 39 40 41 42 43 44 45 46 47 48 49 50 50 51 51 51 50 50 48 47 46 45 45 44 44 44 43
20 21 22 24 25 26 27 29 30 31 32 33 34 36 37 38 39 40 41 43 44 44 45 46 47 48 48 48 48 48 48 47 46 45 44 42 41 41 40 39 39 39 39
19 20 22 24 25 26 28 29 31 32 33 34 35 36 37 38 39 41 42 43 43 44 44 45 45 45 45 44 44 43 42 41 41 39 38 37 36 36 35 34 34 34 34
19 21 23 25 26 28 29 30 31 32 33 34 35 36 38 39 39 40 41 42 42 42 42 41 41 41 40 39 39 38 37 36 35 34 34 33 33 32 31 30 30 30 30
19 21 23 24 25 27 28 29 31 32 34 35 36 37 38 39 39 40 40 40 39 39 38 38 37 36 36 36 35 34 33 33 32 32 31 31 29 29 28 28 27 27 27
21 22 23 25 26 28 29 31 32 33 34 35 36 36 37 37 37 37 37 36 35 35 34 33 33 33 32 32 31 31 30 29 29 29 28 27 27 27 26 26 25 24 23
22 23 25 27 28 30 31 32 33 33 34 34 35 35 35 35 35 34 33 32 32 31 31 30 30 29 29 28 27 27 27 26 26 25 25 24 24 24 23 23 22 21 20
23 25 27 28 30 31 32 32 33 33 34 34 34 34 33 32 31 30 30 30 29 29 28 27 27 26 26 26 25 25 25 24 24 24 23 22 21 21 21 20 19 18 18
Wind_Direction
245 233 222 213 212 211 212 213 215 217 221 222 223 224 225 228 231 235 238 241 244 246 247 250 254 258 259 260 262 264 265 266 268 269 268 270 273 275 275 276 276 278 278
244 232 222 212 212 212 213 215 218 221 222 224 225 226 229 232 235 238 242 243 246 247 249 253 257 260 262 264 265 266 267 267 269 271 270 270 272 273 274 275 275 275 275
248 236 229 224 219 218 218 219 221 223 226 227 227 229 231 234 237 241 245 245 247 249 252 255 259 262 265 267 267 268 269 269 270 271 272 272 272 273 274 275 276 275 276
264 247 241 233 229 224 220 221 224 226 228 231 231 233 236 239 243 245 246 248 251 254 257 260 261 264 266 268 270 271 271 271 272 273 273 274 275 276 276 276 276 276 277
260 253 246 237 234 230 227 225 226 228 232 234 236 238 240 244 248 248 248 253 256 258 261 263 265 265 266 269 270 272 273 273 273 274 274 275 276 276 277 277 277 277 278
260 256 246 241 239 236 235 233 232 234 239 238 239 241 244 248 251 252 254 258 259 261 262 263 266 267 269 271 273 274 274 274 274 275 275 276 276 277 277 278 278 278 277
259 256 252 248 243 240 239 236 235 238 243 242 244 245 248 254 257 257 258 259 260 262 263 264 266 269 271 272 273 273 274 275 276 276 276 277 278 278 278 279 279 278 277
259 259 254 250 246 244 243 241 242 244 247 249 249 251 254 257 260 260 260 259 260 262 263 266 268 271 273 274 275 275 275 275 276 277 277 278 279 279 279 279 278 278 278
260 260 260 256 252 252 250 249 250 253 256 257 257 258 260 263 264 263 264 265 266 267 268 271 273 274 275 276 276 277 277 278 278 278 278 278 279 279 279 279 279 278 278
261 259 261 258 258 258 260 259 258 260 260 261 262 261 262 263 264 266 270 270 271 271 271 273 275 277 278 278 279 279 279 279 280 279 279 279 279 279 279 279 279 279 279
262 259 262 263 261 262 263 263 261 260 262 262 264 265 266 267 269 271 274 274 274 275 275 276 278 279 279 280 280 280 280 280 280 280 280 280 279 279 279 279 280 280 279
259 259 260 262 263 264 264 265 265 264 267 268 269 269 269 270 272 274 277 276 276 276 277 278 279 280 280 280 281 281 281 282 282 281 281 280 280 280 280 280 280 280 280
261 260 261 262 264 266 267 269 269 267 270 271 270 271 272 273 274 276 278 279 279 280 281 282 281 281 281 282 282 283 283 283 283 282 282 282 281 281 281 281 280 280 280
262 262 264 267 268 269 272 273 274 273 274 274 274 275 276 276 277 280 281 281 281 281 282 282 282 282 283 283 283 284 284 284 284 284 283 283 283 283 282 281 281 280 280
263 263 264 267 267 269 273 275 275 276 276 277 279 280 280 281 281 282 282 282 282 282 283 283 283 284 285 285 285 285 285 285 285 285 285 285 285 284 283 282 281 281 280
263 264 264 268 271 273 275 276 277 279 278 279 280 280 281 283 285 286 285 284 285 285 285 285 286 286 286 286 287 287 287 287 287 287 287 287 286 285 285 284 283 282 282
267 267 267 270 273 274 277 279 280 282 282 282 283 284 285 287 288 288 289 288 288 289 289 288 288 288 289 289 289 289 289 289 288 288 288 288 288 287 286 284 284 284 284
266 268 270 273 276 277 278 280 281 282 285 286 286 287 288 290 290 291 291 290 290 290 290 290 290 290 290 291 291 291 291 291 291 291 291 290 289 288 287 285 284 285 284
268 271 274 276 278 279 280 281 283 285 285 286 287 289 290 291 292 292 292 292 292 291 291 291 291 291 292 292 292 292 293 293 293 293 293 292 291 290 290 288 286 286 286
269 272 275 277 278 279 282 284 286 288 288 289 290 291 293 293 294 294 294 294 294 293 293 293 294 294 294 294 294 295 295 295 295 295 295 294 294 293 292 291 289 289 288
274 276 279 281 282 284 286 288 288 289 291 292 293 294 295 295 296 296 296 296 296 296 296 296 296 297 297 298 298 298 298 298 297 297 297 297 298 297 296 294 293 292 292
279 282 283 285 287 288 290 290 291 292 293 294 294 295 295 296 296 296 297 297 297 298 298 299 299 300 301 301 301 301 300 300 299 298 299 300 300 300 299 298 297 296 295
285 287 288 290 291 291 292 292 293 294 294 295 295 296 297 297 298 298 299 300 301 301 301 301 301 302 304 304 304 303 303 302 301 301 301 301 300 301 301 301 301 300 300
291 291 292 293 294 294 295 295 296 296 296 297 297 298 299 299 300 301 301 302 303 304 304 304 304 305 306 306 306 306 305 305 304 304 304 303 302 302 302 303 303 303 304
294 295 296 297 297 297 298 298 298 298 298 298 299 300 301 301 302 303 304 304 305 306 306 306 307 308 308 309 310 310 309 309 309 309 309 308 307 307 307 307 307 306 305
297 297 298 298 298 298 298 298 298 298 299 299 300 301 302 303 304 305 306 307 308 309 309 309 309 310 310 311 311 312 312 312 312 313 312 312 310 311 311 310 310 309 308
Height
5830 5831 5832 5833 5835 5837 5840 5842 5845 5847 5849 5851 5853 5855 5857 5859 5861 5862 5863 5864 5865 5866 5866 5867 5868 5868 5868 5868 5869 5869 5869 5869 5869 5868 5868 5867 5866 5866 5865 5864 5863 5862 5861
5828 5829 5830 5831 5833 5835 5837 5839 5841 5843 5845 5848 5850 5852 5854 5855 5857 5858 5859 5860 5861 5861 5862 5862 5862 5862 5863 5863 5863 5863 5863 5863 5863 5862 5861 5861 5860 5860 5859 5857 5856 5855 5854
5827 5828 5829 5829 5831 5832 5834 5836 5838 5840 5842 5845 5846 5848 5850 5851 5852 5853 5854 5855 5856 5856 5856 5857 5857 5857 5857 5857 5857 5857 5856 5856 5856 5855 5854 5853 5853 5852 5851 5850 5849 5848 5846
5827 5827 5828 5828 5829 5830 5832 5833 5835 5836 5839 5841 5842 5844 5845 5846 5847 5848 5849 5850 5851 5851 5851 5851 5851 5851 5851 5851 5850 5850 5849 5849 5848 5847 5846 5845 5844 5844 5843 5842 5840 5839 5838
5826 5826 5826 5827 5827 5828 5829 5830 5831 5833 5835 5836 5837 5839 5840 5841 5842 5843 5843 5844 5845 5845 5845 5845 5845 5844 5844 5844 5843 5843 5842 5841 5840 5839 5838 5837 5836 5834 5833 5832 5831 5830 5828
5823 5823 5823 5824 5825 5826 5826 5827 5828 5830 5831 5831 5833 5834 5835 5836 5837 5837 5838 5839 5839 5839 5839 5839 5838 5838 5837 5837 5836 5835 5834 5833 5832 5830 5829 5828 5827 5825 5823 5822 5821 5819 5818
5820 5820 5820 5821 5822 5823 5823 5824 5825 5826 5827 5827 5828 5829 5830 5831 5831 5832 5832 5832 5832 5832 5832 5831 5831 5830 5829 5829 5828 5827 5825 5824 5823 5821 5820 5818 5816 5814 5813 5811 5809 5808 5807
5817 5817 5817 5817 5818 5819 5819 5820 5821 5822 5823 5823 5823 5824 5825 5825 5826 5825 5825 5825 5825 5825 5824 5824 5823 5822 5822 5820 5819 5818 5816 5814 5812 5811 5810 5808 5805 5803 5801 5799 5797 5795 5794
5813 5813 5813 5814 5814 5815 5816 5817 5817 5818 5818 5818 5819 5819 5819 5819 5819 5819 5819 5818 5818 5817 5816 5816 5815 5814 5812 5811 5810 5808 5806 5803 5801 5799 5798 5796 5793 5791 5788 5786 5784 5781 5780
5809 5809 5810 5810 5811 5811 5812 5812 5812 5812 5812 5812 5812 5813 5813 5813 5813 5813 5812 5811 5810 5809 5808 5807 5806 5804 5803 5801 5799 5797 5795 5793 5790 5787 5785 5783 5780 5777 5775 5772 5769 5766 5764
5804 5805 5805 5806 5806 5807 5807 5807 5807 5807 5807 5807 5807 5807 5806 5806 5805 5805 5804 5803 5802 5801 5799 5798 5796 5794 5792 5790 5788 5786 5783 5781 5778 5775 5772 5769 5766 5763 5760 5757 5754 5751 5748
5799 5799 5800 5801 5801 5801 5801 5801 5801 5801 5801 5801 5800 5800 5799 5799 5798 5797 5796 5794 5793 5792 5790 5788 5786 5784 5781 5779 5776 5773 5770 5768 5764 5761 5758 5754 5751 5748 5744 5741 5737 5734 5730
5793 5793 5794 5795 5795 5795 5795 5795 5794 5794 5794 5793 5793 5792 5791 5790 5789 5788 5787 5785 5783 5782 5780 5777 5775 5772 5769 5766 5763 5760 5757 5753 5750 5746 5742 5739 5735 5731 5727 5723 5720 5716 5712
5787 5787 5788 5788 5788 5789 5788 5788 5788 5787 5786 5785 5784 5784 5782 5781 5780 5778 5776 5774 5773 5771 5768 5765 5763 5759 5756 5753 5749 5746 5742 5738 5734 5730 5726 5722 5718 5714 5710 5706 5702 5698 5694
5780 5781 5781 5782 5782 5782 5781 5781 5780 5779 5778 5777 5776 5775 5773 5772 5770 5768 5766 5763 5761 5759 5756 5753 5750 5746 5742 5738 5734 5730 5726 5722 5718 5714 5709 5705 5700 5695 5691 5687 5683 5679 5676
5773 5774 5774 5774 5774 5774 5774 5773 5773 5772 5770 5769 5768 5766 5764 5762 5760 5758 5755 5752 5749 5747 5743 5739 5736 5732 5728 5723 5719 5715 5710 5706 5701 5696 5692 5687 5682 5678 5673 5668 5665 5661 5658
5766 5767 5768 5768 5767 5767 5767 5766 5765 5763 5761 5760 5758 5756 5754 5752 5749 5746 5743 5740 5737 5733 5729 5725 5721 5717 5713 5708 5704 5699 5695 5689 5684 5679 5674 5669 5664 5659 5655 5651 5647 5644 5640
5761 5761 5761 5761 5761 5760 5759 5757 5756 5754 5753 5751 5749 5746 5743 5741 5738 5735 5731 5727 5723 5719 5715 5711 5707 5702 5698 5693 5688 5683 5678 5673 5668 5662 5657 5652 5647 5642 5638 5634 5631 5628 5625
5755 5755 5755 5754 5753 5752 5751 5749 5747 5745 5743 5741 5738 5736 5733 5729 5726 5723 5719 5715 5710 5706 5702 5697 5692 5688 5682 5677 5672 5667 5662 5657 5652 5647 5642 5637 5632 5627 5623 5619 5616 5613 5611
5748 5748 5748 5747 5746 5744 5742 5740 5738 5736 5734 5731 5728 5725 5722 5718 5714 5710 5706 5701 5697 5692 5688 5683 5678 5673 5668 5662 5657 5652 5647 5642 5637 5632 5628 5623 5619 5614 5610 5607 5603 5600 5598
5742 5741 5740 5739 5737 5736 5734 5732 5729 5726 5723 5720 5717 5714 5710 5706 5702 5697 5693 5688 5683 5679 5674 5669 5664 5659 5653 5648 5644 5639 5634 5629 5625 5620 5616 5612 5608 5603 5599 5596 5593 5590 5587
5735 5734 5733 5731 5730 5728 5725 5722 5719 5716 5713 5710 5706 5703 5699 5695 5690 5685 5681 5676 5671 5666 5661 5656 5651 5646 5641 5637 5632 5627 5623 5618 5614 5610 5606 5602 5598 5594 5590 5587 5584 5580 5577
5729 5727 5726 5724 5721 5719 5716 5713 5710 5706 5703 5699 5696 5691 5687 5683 5678 5674 5669 5664 5659 5654 5649 5645 5640 5635 5631 5627 5622 5618 5614 5609 5605 5601 5597 5593 5589 5586 5582 5579 5576 5572 5569
5722 5720 5718 5715 5713 5710 5707 5703 5700 5696 5693 5689 5685 5681 5676 5672 5667 5663 5658 5653 5649 5644 5639 5635 5630 5626 5622 5618 5613 5609 5605 5601 5597 5593 5589 5586 5582 5578 5575 5572 5568 5565 5562
5714 5712 5709 5707 5704 5700 5697 5693 5690 5686 5682 5679 5675 5670 5666 5661 5657 5653 5648 5644 5640 5635 5631 5627 5622 5618 5614 5610 5606 5602 5598 5594 5590 5586 5582 5579 5575 5572 5569 5565 5562 5560 5557
5707 5704 5701 5698 5694 5691 5687 5683 5680 5676 5672 5668 5664 5660 5656 5652 5648 5644 5640 5636 5632 5627 5623 5619 5615 5611 5607 5603 5600 5596 5592 5588 5584 5580 5577 5573 5570 5567 5564 5560 5558 5555 5552